Location: Glenbow
(51.1592°N, 114.3828°W)
Time: 20:14:59
(UTC+00:00)

Envisat - Pass Details

Date: 04 December 2021
Orbit: 764 x 766 km, 98.2° (Epoch: 26 January)

Event Time Altitude Azimuth Distance (km) Brightness Sun altitude
Rises 13:50:17 0° 8° (N) 3,248 6.1 -13.8°
Reaches altitude 10° 13:52:46 10° 359° (N) 2,317 5.3 -13.5°
Maximum altitude 13:57:18 33° 297° (WNW) 1,265 3.6 -12.8°
Drops below altitude 10° 14:01:49 10° 234° (SW) 2,302 5.2 -12.1°
Sets 14:04:17 0° 225° (SW) 3,224 6.0 -11.8°
